Weather in Hachijo Jima

Japan     33°04′59″N   139°48′00″E
temp.,
°C
wind,
m/s
gust,
m/s
humid.,
%
clouds,
%
prec.,
mm/h
press.,
hPa
HPBL,
m
18 may, tue
tue1800:00+23sw131993100 0.0 1010425
03:00+23sw121993100 0.0 1010497
06:00+23sw111694100 0.0 1012499
09:00+23sw101495100 0.1 1012422
12:00+23sw91595100 0.4 1012426
15:00+22sw9139668 1.2 1012366
18:00+23sw8139598 0.0 1013375
21:00+22sw81196100 0.4 1014345
19 may, wed
wed1900:00+22sw8129794 2.3 1012441
03:00+22sw81396100 4.2 1013458
06:00+23sw71096100 0.4 1014419
09:00+23sw7109595 0.5 1014390
12:00+22sw7139790 0.4 1014477
15:00+23wsw81292100 0.6 1013364
18:00+22wsw81492100 0.1 1014506
21:00+22wsw51092100 0.1 1015441
20 may, thu
thu2000:00+22ssw71192100 0.0 1015323
03:00+23sw91290100 1.1 1014277
06:00+23wsw71192100 1.3 1016318
09:00+22wnw6892100 3.9 1017428
12:00+21wnw4592100 1.5 1017309
15:00+21nw0095100 6.4 1016112
18:00+21se1193100 2.6 1016119
21:00+22se4592100 3.1 1018291
21 may, fri
fri2100:00+22se5793100 0.9 1016302
03:00+23s71093100 1.4 1015341
06:00+23s81194100 0.4 1014387
09:00+23s81393100 0.5 1014426
12:00+23ssw8149399 0.0 1013484
15:00+23ssw9159275 0.3 1012446
18:00+23ssw9159395 0.0 1012394
21:00+23ssw10159599 0.1 1012428
22 may, sat
sat2200:00+23ssw111695100 0.1 1010483
03:00+23ssw121894100 0.8 1009525
06:00+23ssw131993100 1.1 1009573
09:00+24sw131885100 5.2 1009574
12:00+22wsw71396100 2.3 1008698
15:00+23sw111893100 5.1 1007741
18:00+22sw121894100 6.8 1006853
21:00+22sw131792100 8.4 1007993